Juneau, AK

5:10 AM AKST on February 13, 2016 (GMT -0900)
Juneau International | | Change Station
CLOSE
Current Station
Airport
Location: Juneau,
Elevation: 23 ft
Nearby Weather Stations

Elev 23 ft 58.35 °N, 134.58 °W | Updated 17 minutes ago

Light Rain
Light Rain
41 °F
Feels Like 33 °F
N
16
Wind Variable Wind from ESE

Today
High -- | Low -- °F
--% Chance of Precip.
Yesterday
High -- | Low -- °F
Precip. -- in
Pressure 29.72 in
Visibility 10.0 miles
Clouds Scattered Clouds 6000 ft
Overcast 8500 ft
Windchill 33 °F
Dew Point 38 °F
Humidity 89%
Rainfall 0.01 in
Snow Depth Not available.
7:36 AM 4:49 PM
Waxing Crescent, 31% visible
METAR PAJN 131353Z 11014KT 10SM -RA SCT060 OVC085 05/03 A2972 RMK AO2 RAB16 SLP062 PCPN VRY LGT P0001 T00500033
Pressure 29.72 in
Visibility 10.0 miles
Clouds Scattered Clouds 6000 ft
Overcast 8500 ft
Windchill 33 °F
Dew Point 38 °F
Humidity 89%
Rainfall 0.01 in
Snow Depth Not available.
7:36 AM 4:49 PM
Waxing Crescent, 31% visible
METAR PAJN 131353Z 11014KT 10SM -RA SCT060 OVC085 05/03 A2972 RMK AO2 RAB16 SLP062 PCPN VRY LGT P0001 T00500033

10-Day Weather Forecast

Almanac

Astronomy

Feb. 13, 2016 Rise Set
Actual Time
Civil Twilight
Nautical Twilight
Astronomical Twilight
Moon
Length of Visible Light
Length of Day
Tomorrow will be .
, % of the Moon is Illuminated

Today's Extremes

State Highs State Lows

Community

WunderPhotos

Upload Photos

1,892,556 photos uploaded!

WunderBlog® & News

Nearby

Air Quality

  Air Quality AQ Index Pollutant
Not available.

Snow Depth

Station Depth Elevation

Earthquake Activity

City Distance Mag. Time & Date
Minimum magnitude displayed is 2.5.

Coastal Water Temperatures

Place Temperature

Stations

Nearby Weather Stations

Station Location Temp. Windchill Dew Point Humidity Wind Precip. Elev Updated Type
                   

Watches & Warnings

There are currently no watches in effect.